Weather History for Binghamton, NY

Change the Weather History Date:

Wednesday, March 26, 2014

  Actual Average Record
Temperature  
Mean Temperature 19 °F 36 °F  
Max Temperature 24 °F 45 °F 71 °F (1986)
Min Temperature 14 °F 28 °F 4 °F (1960)
Degree Days  
Heating Degree Days 46 29  
Month to date heating degree days 1053 861  
Since 1 July heating degree days 6524 6060  
Cooling Degree Days 0 0  
Month to date cooling degree days 0 0  
Year to date cooling degree days 0 0  
Moisture  
Dew Point 10 °F    
Average Humidity 71    
Maximum Humidity 96    
Minimum Humidity 45    
Precipitation  
Precipitation T in 0.11 in 1.81 in (2002)
Month to date precipitation 1.11 2.45  
Year to date precipitation 6.80 7.21  
Snow  
Snow T in 0.40 in 3.70 in (1958)
Month to date snowfall 1.5 13.5  
Since 1 July snowfall 84.0 77.4  
Snow Depth T in    
Sea Level Pressure  
Sea Level Pressure 30.00 in    
Wind  
Wind Speed 15 mph (NW)    
Max Wind Speed 26 mph    
Max Gust Speed 37 mph    
Visibility 7 miles    
Events Snow    
T = Trace of Precipitation, MM = Missing Value Source: NWS Daily Summary

Daily Weather History Graph

Daily Weather History Graph

Search for Another Location

Airport:

Trip Planner

Search our weather history database for the weather conditions in past years. The results will help you decide how hot, cold, wet, or windy it might be!

Date:

Astronomy

Mar. 26, 2014 Rise Set
Actual Time 6:56 AM EDT 7:22 PM EDT
Civil Twilight 6:28 AM EDT 7:51 PM EDT
Nautical Twilight 5:55 AM EDT 8:24 PM EDT
Astronomical Twilight 5:21 AM EDT 8:58 PM EDT
Moon 4:08 AM EDT (3/26) 2:54 PM EDT (3/26)
Length of Visible Light 13h 22m
Length of Day
12h 26m
Waning Crescent, 22% of the Moon is Illuminated
Mar 26
Waning Crescent
Mar 30
New
Apr 7
First Quarter
Apr 15
Full
Apr 22
Last Quarter

Hourly Weather History & Observations

Time (EDT) Temp. Windchill Dew Point Humidity Pressure Visibility Wind Dir Wind Speed Gust Speed Precip Events Conditions
12:53 AM 23.0 °F 17.0 °F 21.0 °F 92% 29.88 in 7.0 mi NW 4.6 mph - N/A   Partly Cloudy
1:06 AM 23.0 °F 17.0 °F 21.2 °F 93% 29.82 in 7.0 mi NW 4.6 mph - N/A   Mostly Cloudy
1:09 AM 23.0 °F 17.0 °F 21.2 °F 93% 29.82 in 7.0 mi NW 4.6 mph - N/A   Mostly Cloudy
1:29 AM 23.0 °F 11.1 °F 19.4 °F 86% 29.83 in 8.0 mi NNW 12.7 mph - N/A   Overcast
1:53 AM 23.0 °F 11.1 °F 19.9 °F 88% 29.88 in 8.0 mi NNW 12.7 mph - N/A   Overcast
2:48 AM 23.0 °F 12.4 °F 19.4 °F 86% 29.82 in 7.0 mi NNW 10.4 mph - N/A   Overcast
2:53 AM 23.0 °F 13.1 °F 19.9 °F 88% 29.88 in 6.0 mi NNW 9.2 mph - N/A   Overcast
3:15 AM 21.2 °F 5.2 °F 15.8 °F 80% 29.82 in 8.0 mi North 21.9 mph 28.8 mph 0.00 in   Overcast
3:53 AM 19.9 °F 7.9 °F 15.1 °F 81% 29.91 in 9.0 mi NNW 11.5 mph 24.2 mph 0.00 in   Overcast
4:26 AM 19.4 °F 5.5 °F 12.2 °F 74% 29.85 in 10.0 mi NNW 15.0 mph 24.2 mph N/A   Overcast
4:53 AM 19.0 °F 5.0 °F 12.9 °F 77% 29.93 in 10.0 mi North 15.0 mph - N/A   Overcast
5:44 AM 19.4 °F 4.1 °F 10.4 °F 68% 29.88 in 9.0 mi NNW 18.4 mph 24.2 mph 0.00 in Snow Light Snow
5:53 AM 18.0 °F 3.1 °F 10.9 °F 74% 29.95 in 9.0 mi NNW 16.1 mph 21.9 mph 0.00 in   Overcast
6:13 AM 17.6 °F 1.7 °F 10.4 °F 73% 29.88 in 9.0 mi NNW 18.4 mph - N/A   Overcast
6:22 AM 17.6 °F 3.7 °F 10.4 °F 73% 29.88 in 8.0 mi NNW 13.8 mph 24.2 mph 0.00 in Snow Light Snow
6:53 AM 17.1 °F 1.5 °F 8.1 °F 68% 29.97 in 10.0 mi NNW 17.3 mph 27.6 mph 0.00 in   Mostly Cloudy
7:11 AM 17.6 °F 3.7 °F 8.6 °F 68% 29.90 in 10.0 mi NNW 13.8 mph 21.9 mph N/A   Mostly Cloudy
7:53 AM 16.0 °F 1.7 °F 7.0 °F 68% 30.00 in 10.0 mi NNW 13.8 mph - N/A   Overcast
8:53 AM 15.1 °F 0.5 °F 6.1 °F 68% 30.03 in 8.0 mi NNW 13.8 mph 26.5 mph 0.00 in Snow Light Snow
9:53 AM 15.1 °F -0.1 °F 7.0 °F 70% 30.04 in 3.0 mi NW 15.0 mph 21.9 mph 0.00 in Snow Light Snow
10:53 AM 18.0 °F 1.3 °F 5.0 °F 57% 30.04 in 10.0 mi NW 20.7 mph 27.6 mph 0.00 in   Overcast
11:15 AM 17.6 °F 2.2 °F 8.6 °F 68% 29.97 in 2.0 mi WNW 17.3 mph 26.5 mph 0.00 in Snow Light Snow
11:31 AM 19.4 °F 2.8 °F 6.8 °F 58% 29.97 in 3.0 mi NNW 21.9 mph 31.1 mph 0.00 in Snow Light Snow
11:40 AM 17.6 °F 1.7 °F 6.8 °F 63% 29.97 in 2.0 mi NNW 18.4 mph 33.4 mph 0.00 in Snow Light Snow
11:53 AM 19.0 °F 4.0 °F 9.0 °F 65% 30.05 in 0.5 mi NW 17.3 mph 34.5 mph 0.00 in   Haze
11:55 AM 19.4 °F 4.5 °F 8.6 °F 63% 29.98 in 0.2 mi NW 17.3 mph 34.5 mph 0.00 in Snow Heavy Snow
11:56 AM 17.6 °F 3.7 °F 10.4 °F 73% 29.98 in 0.2 mi NW 13.8 mph 34.5 mph 0.00 in Snow Heavy Snow
12:06 PM 17.6 °F 2.2 °F 12.2 °F 79% 29.98 in 1.0 mi NW 17.3 mph 27.6 mph 0.00 in Snow Light Snow
12:13 PM 19.4 °F 3.2 °F 8.6 °F 63% 29.97 in 2.5 mi NW 20.7 mph 34.5 mph 0.00 in Snow Light Snow
12:37 PM 19.4 °F 3.2 °F 6.8 °F 58% 29.98 in 1.5 mi NNW 20.7 mph 34.5 mph 0.00 in   Overcast
12:38 PM 19.4 °F 3.6 °F 6.8 °F 58% 29.97 in 1.5 mi NW 19.6 mph 34.5 mph 0.00 in Snow Light Snow
12:40 PM 19.4 °F 2.8 °F 6.8 °F 58% 29.98 in 2.5 mi NNW 21.9 mph 34.5 mph 0.00 in Snow Light Snow
12:53 PM 19.9 °F 3.9 °F 6.1 °F 55% 30.05 in 2.5 mi NW 20.7 mph 32.2 mph 0.00 in   Mostly Cloudy
1:18 PM 19.4 °F 5.5 °F 3.2 °F 49% 29.98 in 10.0 mi NW 15.0 mph 32.2 mph 0.00 in   Overcast
1:53 PM 21.9 °F 7.3 °F 3.0 °F 44% 30.04 in 10.0 mi NNW 18.4 mph 29.9 mph 0.00 in   Overcast
2:53 PM 19.0 °F 2.7 °F 1.0 °F 46% 30.06 in 10.0 mi NNW 20.7 mph 33.4 mph N/A   Mostly Cloudy
3:53 PM 19.9 °F 4.3 °F 1.0 °F 44% 30.06 in 10.0 mi NW 19.6 mph 36.8 mph N/A   Mostly Cloudy
4:53 PM 19.9 °F 5.7 °F 5.0 °F 52% 30.09 in 10.0 mi NW 16.1 mph 28.8 mph N/A   Overcast
5:53 PM 19.0 °F 2.7 °F 3.9 °F 52% 30.12 in 10.0 mi NW 20.7 mph 29.9 mph N/A   Overcast
6:15 PM 17.6 °F 3.7 °F 8.6 °F 68% 30.06 in 1.5 mi NW 13.8 mph 21.9 mph 0.00 in Snow Light Snow
6:53 PM 18.0 °F 5.4 °F 10.0 °F 71% 30.15 in 5.0 mi NNW 11.5 mph 21.9 mph 0.00 in Snow Light Snow
7:17 PM 17.6 °F 3.7 °F 10.4 °F 73% 30.07 in 6.0 mi NNW 13.8 mph - 0.00 in Snow Light Snow
7:53 PM 17.1 °F 4.3 °F 7.0 °F 65% 30.17 in 10.0 mi NW 11.5 mph - 0.00 in   Overcast
8:53 PM 17.1 °F 5.0 °F 8.1 °F 68% 30.20 in 9.0 mi NW 10.4 mph 17.3 mph 0.00 in Snow Light Snow
9:53 PM 16.0 °F 1.1 °F 7.0 °F 68% 30.22 in 10.0 mi WNW 15.0 mph 19.6 mph 0.00 in   Overcast
10:53 PM 16.0 °F 3.6 °F 6.1 °F 65% 30.23 in 10.0 mi NW 10.4 mph 17.3 mph N/A   Overcast
11:46 PM 15.8 °F 3.4 °F 6.8 °F 68% 30.16 in 10.0 mi WNW 10.4 mph - N/A   Mostly Cloudy
11:53 PM 15.1 °F 1.8 °F 6.1 °F 68% 30.25 in 10.0 mi WNW 11.5 mph - N/A   Mostly Cloudy